Location: Tamazert
(32.6352°N, 5.2072°W)
Time: 00:41:17
(UTC+00:00)

Altair - Pass Details

Date: 09 October 2022
Orbit: 1501 x 1682 km, 47.2° (Epoch: 05 December)

Event Time Altitude Azimuth Distance (km) Brightness Sun altitude
Exits shadow 02:11:09 32° 76° (ENE) 2,466 8.7 -51.1°
Drops below altitude 10° 02:16:05 10° 60° (ENE) 3,841 10.1 -50.2°
Sets 02:19:20 0° 56° (NE) 4,853 10.8 -49.7°
